When you browse on this site, cookies collect data to enhance your experience and personalize the content and advertising you see.
Visit our Privacy Policy to learn more. By continuing to use the site, you agree to this use of cookies and data.
  • In Belgium
  • List of Countries
  • For 7 days
  • Water Temperature
  • Satellite Maps
  • Weather Map
  • Weather Widgets
  • user-avatar
    Login

    Hourly Weather Sevan

    Today, 20 March, Wednesday

    Time Temperature Precipitation Wind Pressure Humidity
    00:00 +1°C° 0.1 mm 1 mps 641 mmHg 73%
    01:00 0°C° 0 mm 1 mps 641 mmHg 73%
    02:00 0°C° 0 mm 1 mps 641 mmHg 74%
    03:00 0°C° 0 mm 1 mps 641 mmHg 74%
    04:00 -1°C° 0 mm 1 mps 641 mmHg 74%
    05:00 -2°C° 0 mm 0 mps 640 mmHg 73%
    06:00 -2°C° 0 mm 0 mps 640 mmHg 73%
    07:00 -1°C° 0 mm 0 mps 640 mmHg 70%
    08:00 +2°C° 0 mm 1 mps 641 mmHg 67%
    09:00 +3°C° 0 mm 1 mps 641 mmHg 64%
    10:00 +4°C° 0.1 mm 1 mps 641 mmHg 62%
    11:00 +5°C° 0.1 mm 1 mps 640 mmHg 61%
    12:00 +5°C° 0.1 mm 2 mps 640 mmHg 60%
    13:00 +5°C° 0.1 mm 2 mps 640 mmHg 59%
    14:00 +6°C° 0.1 mm 2 mps 640 mmHg 59%
    15:00 +6°C° 0.1 mm 2 mps 640 mmHg 58%
    16:00 +7°C° 0.1 mm 1 mps 640 mmHg 60%
    17:00 +6°C° 0.1 mm 1 mps 640 mmHg 62%
    18:00 +5°C° 0.1 mm 1 mps 640 mmHg 64%
    19:00 +5°C° 0.2 mm 1 mps 640 mmHg 66%
    20:00 +5°C° 0.2 mm 1 mps 640 mmHg 67%
    21:00 +4°C° 0.2 mm 1 mps 641 mmHg 69%
    22:00 +4°C° 0.1 mm 1 mps 641 mmHg 71%
    23:00 +4°C° 0.1 mm 1 mps 641 mmHg 72%

    Tomorrow, 21 March, Thursday

    Time Temperature Precipitation Wind Pressure Humidity
    00:00 +4°C° 0.1 mm 1 mps 641 mmHg 74%
    01:00 +3°C° 0.1 mm 1 mps 641 mmHg 76%
    02:00 +3°C° 0.1 mm 1 mps 641 mmHg 77%
    03:00 +2°C° 0.1 mm 1 mps 640 mmHg 78%
    04:00 +2°C° 0.1 mm 1 mps 640 mmHg 79%
    05:00 +2°C° 0.1 mm 1 mps 640 mmHg 80%
    06:00 +2°C° 0.1 mm 1 mps 640 mmHg 80%
    07:00 +3°C° 0.1 mm 1 mps 641 mmHg 76%
    08:00 +4°C° 0.1 mm 1 mps 641 mmHg 72%
    09:00 +4°C° 0.1 mm 0 mps 641 mmHg 68%
    10:00 +6°C° 0 mm 1 mps 641 mmHg 66%
    11:00 +7°C° 0 mm 1 mps 641 mmHg 64%
    12:00 +8°C° 0 mm 1 mps 641 mmHg 62%
    13:00 +8°C° 0.1 mm 1 mps 641 mmHg 61%
    14:00 +8°C° 0.1 mm 1 mps 640 mmHg 61%
    15:00 +9°C° 0.1 mm 1 mps 640 mmHg 60%
    16:00 +8°C° 0.1 mm 1 mps 640 mmHg 62%
    17:00 +7°C° 0.1 mm 1 mps 640 mmHg 64%
    18:00 +7°C° 0.1 mm 1 mps 640 mmHg 65%
    19:00 +6°C° 0.1 mm 1 mps 640 mmHg 67%
    20:00 +6°C° 0.1 mm 1 mps 641 mmHg 69%
    21:00 +5°C° 0.1 mm 1 mps 641 mmHg 71%
    22:00 +5°C° 0.1 mm 1 mps 641 mmHg 72%
    23:00 +3°C° 0.1 mm 0 mps 641 mmHg 73%

    Day after tomorrow, 22 March, Friday

    Time Temperature Precipitation Wind Pressure Humidity
    00:00 +3°C° 0.1 mm 0 mps 641 mmHg 74%
    01:00 +3°C° 0.1 mm 0 mps 641 mmHg 75%
    02:00 +2°C° 0.1 mm 0 mps 641 mmHg 76%
    03:00 +2°C° 0.1 mm 0 mps 641 mmHg 76%
    04:00 +2°C° 0.1 mm 0 mps 641 mmHg 77%
    05:00 +1°C° 0.1 mm 0 mps 641 mmHg 77%
    06:00 +1°C° 0.1 mm 0 mps 641 mmHg 77%
    07:00 +3°C° 0 mm 1 mps 641 mmHg 73%
    08:00 +4°C° 0 mm 1 mps 642 mmHg 68%
    09:00 +5°C° 0 mm 1 mps 642 mmHg 64%
    10:00 +5°C° 0 mm 2 mps 642 mmHg 62%
    11:00 +5°C° 0 mm 2 mps 641 mmHg 60%
    12:00 +6°C° 0 mm 2 mps 641 mmHg 59%
    13:00 +6°C° 0.1 mm 2 mps 641 mmHg 57%
    14:00 +7°C° 0.1 mm 2 mps 641 mmHg 55%
    15:00 +7°C° 0.1 mm 2 mps 640 mmHg 53%
    16:00 +6°C° 0.1 mm 2 mps 640 mmHg 53%
    17:00 +5°C° 0.1 mm 2 mps 640 mmHg 54%
    18:00 +6°C° 0.1 mm 1 mps 640 mmHg 55%
    19:00 +5°C° 0 mm 1 mps 640 mmHg 57%
    20:00 +4°C° 0 mm 1 mps 641 mmHg 60%
    21:00 +3°C° 0 mm 1 mps 641 mmHg 62%
    22:00 +3°C° 0 mm 1 mps 641 mmHg 63%
    23:00 +2°C° 0 mm 1 mps 641 mmHg 65%

    23 March, Saturday

    Time Temperature Precipitation Wind Pressure Humidity
    00:00 +2°C° 0 mm 1 mps 641 mmHg 66%
    01:00 0°C° 0 mm 0 mps 641 mmHg 67%
    02:00 0°C° 0 mm 0 mps 641 mmHg 68%
    03:00 0°C° 0 mm 0 mps 641 mmHg 68%
    04:00 -1°C° 0 mm 0 mps 641 mmHg 69%
    05:00 -1°C° 0 mm 0 mps 641 mmHg 69%
    06:00 -1°C° 0 mm 0 mps 641 mmHg 69%
    07:00 +1°C° 0 mm 1 mps 642 mmHg 65%
    08:00 +2°C° 0 mm 1 mps 642 mmHg 60%
    09:00 +3°C° 0 mm 1 mps 642 mmHg 56%
    10:00 +4°C° 0 mm 1 mps 642 mmHg 53%
    11:00 +4°C° 0 mm 2 mps 642 mmHg 50%
    12:00 +5°C° 0 mm 2 mps 642 mmHg 46%
    13:00 +5°C° 0 mm 2 mps 641 mmHg 46%
    14:00 +6°C° 0 mm 2 mps 641 mmHg 45%
    15:00 +6°C° 0 mm 2 mps 640 mmHg 44%
    16:00 +5°C° 0 mm 2 mps 640 mmHg 46%
    17:00 +4°C° 0 mm 2 mps 640 mmHg 48%
    18:00 +5°C° 0 mm 1 mps 640 mmHg 50%
    19:00 +4°C° 0 mm 1 mps 640 mmHg 51%
    20:00 +3°C° 0 mm 1 mps 640 mmHg 52%
    21:00 +2°C° 0 mm 1 mps 640 mmHg 53%
    22:00 +2°C° 0 mm 1 mps 640 mmHg 52%
    23:00 +1°C° 0 mm 1 mps 640 mmHg 52%

    24 March, Sunday

    Time Temperature Precipitation Wind Pressure Humidity
    00:00 +1°C° 0 mm 1 mps 640 mmHg 51%
    01:00 +1°C° 0 mm 1 mps 640 mmHg 52%
    02:00 +1°C° 0 mm 1 mps 640 mmHg 53%
    03:00 0°C° 0 mm 1 mps 640 mmHg 54%
    04:00 0°C° 0 mm 1 mps 640 mmHg 55%
    05:00 0°C° 0 mm 1 mps 640 mmHg 56%
    06:00 0°C° 0 mm 1 mps 640 mmHg 58%
    07:00 +1°C° 0 mm 1 mps 640 mmHg 54%
    08:00 +3°C° 0 mm 1 mps 641 mmHg 51%
    09:00 +4°C° 0 mm 1 mps 641 mmHg 47%
    10:00 +5°C° 0 mm 1 mps 641 mmHg 45%
    11:00 +7°C° 0 mm 1 mps 641 mmHg 43%
    12:00 +8°C° 0 mm 1 mps 641 mmHg 41%
    13:00 +8°C° 0 mm 1 mps 641 mmHg 40%
    14:00 +9°C° 0 mm 1 mps 640 mmHg 39%
    15:00 +9°C° 0 mm 1 mps 640 mmHg 38%
    16:00 +8°C° 0 mm 1 mps 640 mmHg 40%
    17:00 +7°C° 0 mm 1 mps 640 mmHg 43%
    18:00 +5°C° 0 mm 0 mps 640 mmHg 45%
    19:00 +6°C° 0 mm 1 mps 640 mmHg 47%
    20:00 +5°C° 0 mm 1 mps 640 mmHg 49%
    21:00 +4°C° 0 mm 1 mps 640 mmHg 51%
    22:00 +4°C° 0 mm 1 mps 640 mmHg 52%
    23:00 +3°C° 0 mm 1 mps 640 mmHg 53%

    25 March, Monday

    Time Temperature Precipitation Wind Pressure Humidity
    00:00 +3°C° 0 mm 1 mps 640 mmHg 54%
    01:00 +3°C° 0 mm 1 mps 640 mmHg 53%
    02:00 +3°C° 0 mm 1 mps 640 mmHg 53%
    03:00 +2°C° 0 mm 1 mps 639 mmHg 53%
    04:00 +2°C° 0 mm 1 mps 639 mmHg 52%
    05:00 +2°C° 0 mm 1 mps 639 mmHg 51%
    06:00 +2°C° 0 mm 1 mps 639 mmHg 51%
    07:00 +4°C° 0 mm 1 mps 639 mmHg 47%
    08:00 +5°C° 0 mm 1 mps 640 mmHg 44%
    09:00 +6°C° 0 mm 2 mps 640 mmHg 41%
    10:00 +7°C° 0 mm 2 mps 640 mmHg 39%
    11:00 +8°C° 0 mm 2 mps 639 mmHg 37%
    12:00 +9°C° 0 mm 2 mps 639 mmHg 35%
    13:00 +9°C° 0 mm 2 mps 639 mmHg 35%
    14:00 +10°C° 0 mm 2 mps 639 mmHg 34%
    15:00 +10°C° 0 mm 2 mps 638 mmHg 33%
    16:00 +9°C° 0 mm 2 mps 638 mmHg 35%
    17:00 +9°C° 0 mm 1 mps 638 mmHg 37%
    18:00 +8°C° 0 mm 1 mps 638 mmHg 39%
    19:00 +7°C° 0 mm 1 mps 638 mmHg 40%
    20:00 +6°C° 0 mm 1 mps 638 mmHg 41%
    21:00 +5°C° 0 mm 1 mps 639 mmHg 42%
    22:00 +5°C° 0 mm 1 mps 639 mmHg 42%
    23:00 +4°C° 0 mm 1 mps 639 mmHg 43%
    Show more